Wind_Speed
15 15 14 14 15 15 16 16 16 16 16 16 16 17 16 16 16 16 15 16 16 16 16 16 16 16 16 16 17 18 18 18 18 18 18 19 19 20 20 20 21 21 21
16 16 17 16 16 17 17 17 17 16 17 17 18 18 18 18 18 18 17 17 17 17 16 17 17 17 18 19 19 19 20 20 20 20 20 21 22 22 22 22 23 23 23
17 17 17 17 17 17 18 18 18 18 18 19 19 19 19 19 19 19 19 19 19 18 18 18 19 19 20 20 21 21 21 21 22 22 23 23 24 24 23 24 24 25 25
18 18 18 18 18 18 18 19 19 19 19 19 19 19 19 19 20 20 19 19 19 20 20 20 19 19 20 21 21 22 22 23 23 23 24 24 25 25 25 25 25 26 25
19 20 20 20 20 19 19 19 20 19 19 19 19 19 18 19 19 19 20 20 20 20 20 20 21 20 21 22 22 22 23 24 24 24 25 25 25 25 26 25 26 26 26
20 20 21 21 20 20 20 19 19 20 20 20 19 20 20 19 19 19 20 20 20 21 21 21 22 21 21 22 22 23 24 24 25 25 26 26 26 26 26 26 26 25 26
20 20 21 21 20 20 20 20 20 20 21 21 21 20 20 20 19 19 20 21 20 21 22 22 22 22 23 23 23 23 24 25 26 26 26 26 26 26 27 27 26 25 25
20 20 21 21 21 21 21 21 20 20 21 21 21 22 22 21 20 20 20 20 20 21 22 23 23 23 23 24 25 25 26 26 27 27 26 27 27 27 27 28 26 25 25
20 20 20 21 22 23 23 22 21 21 21 22 23 22 22 21 22 22 21 21 21 21 22 23 24 24 24 25 26 26 27 27 27 26 26 26 27 27 27 27 26 26 25
22 21 21 21 22 23 23 23 22 22 22 22 23 22 22 22 23 23 23 22 23 23 23 23 24 24 25 25 26 27 27 28 27 27 26 26 26 27 27 27 26 24 23
24 23 22 22 22 23 23 22 22 22 22 23 23 23 23 23 23 24 24 24 24 24 24 25 25 25 25 26 27 27 27 27 27 28 27 27 27 27 27 26 25 24 24
26 26 26 24 24 24 23 23 22 22 23 24 24 24 24 24 24 25 25 25 26 26 26 26 26 26 26 26 27 27 27 26 27 27 28 28 28 27 27 26 24 24 24
27 27 27 27 25 24 24 24 24 24 24 25 25 25 25 25 25 25 25 26 27 26 26 26 26 26 26 27 27 27 26 26 27 27 27 27 27 27 27 27 26 25 25
28 28 27 26 27 26 26 25 25 25 26 26 26 26 26 26 26 27 26 26 27 28 28 29 29 28 27 27 27 27 27 27 28 27 27 27 27 27 27 27 26 26 26
30 29 29 28 27 27 27 27 27 27 27 27 28 27 27 27 27 28 27 27 28 28 29 29 29 28 28 28 27 27 27 27 28 27 27 27 27 27 27 27 26 26 25
31 31 29 29 29 28 28 29 29 28 28 28 27 27 28 28 28 28 28 28 28 28 29 30 29 29 29 29 28 27 27 27 27 27 27 27 27 27 27 26 26 25 24
33 32 31 31 31 31 30 29 29 29 29 29 28 28 27 28 28 28 29 29 29 29 30 30 30 29 30 29 29 28 28 28 27 27 27 27 26 26 26 25 25 24 24
34 34 34 33 33 33 32 31 30 30 30 30 30 29 30 30 30 30 30 31 31 31 30 30 30 30 30 29 29 28 28 28 28 28 27 26 25 25 25 25 24 24 24
36 36 35 34 34 34 34 33 32 31 31 31 30 30 31 32 32 32 31 32 33 32 31 31 31 31 30 30 29 28 28 27 27 27 27 26 26 25 25 25 25 25 26
35 35 36 35 35 34 33 33 32 32 31 31 31 31 32 32 32 32 32 32 32 31 30 30 31 31 30 30 29 29 28 27 27 26 25 25 25 25 25 25 26 26 26
34 35 35 35 35 34 34 34 33 33 32 32 31 32 33 32 32 31 31 31 31 31 30 31 31 31 30 30 30 29 28 28 27 27 26 26 26 26 26 26 26 25 25
35 35 35 35 36 36 36 36 35 34 34 34 33 34 34 33 32 32 32 32 32 31 31 32 32 31 31 31 31 30 29 29 29 28 27 27 26 26 26 26 26 26 25
35 36 36 36 36 36 36 36 36 36 35 35 35 34 34 34 33 33 32 32 32 32 33 33 33 32 31 31 32 31 30 29 28 28 27 27 27 27 26 26 26 25 25
35 36 36 35 36 36 36 36 36 37 36 36 36 35 35 34 34 33 33 32 32 33 32 32 31 30 29 30 31 31 30 29 28 28 28 28 27 27 26 26 26 25 25
34 35 35 35 35 35 36 36 36 37 37 37 36 36 35 35 34 33 33 33 32 32 32 31 30 30 30 30 30 30 29 27 27 28 28 28 27 27 26 26 26 26 26
32 32 33 33 33 34 35 35 35 35 35 35 35 35 35 35 35 34 33 33 32 32 31 31 31 31 31 31 30 29 28 28 28 28 28 28 28 28 27 27 26 26 26
Wind_Direction
278 278 278 278 277 274 269 267 269 272 274 275 274 274 271 272 274 277 280 281 284 285 285 281 281 284 287 289 291 291 293 295 294 293 294 294 295 292 291 292 293 294 295
276 277 279 278 277 273 268 266 269 272 275 276 277 278 275 272 272 273 277 278 281 284 283 283 282 284 286 288 289 290 292 293 294 292 293 295 294 293 291 292 292 293 294
275 276 276 276 274 271 268 268 269 271 273 275 277 278 277 274 274 274 275 276 277 279 280 282 283 285 287 288 289 288 289 290 292 292 293 294 295 294 293 292 293 293 293
278 278 276 275 273 271 271 270 271 271 274 275 277 279 276 275 275 276 276 278 279 278 280 282 285 286 288 289 289 290 288 288 290 292 293 294 294 293 294 294 293 291 292
275 277 277 276 274 272 273 272 273 273 273 274 277 277 276 278 276 276 275 278 280 281 280 281 283 285 287 289 290 290 289 288 289 291 291 291 293 293 293 293 294 291 290
272 274 275 273 273 274 274 272 273 274 272 273 275 275 276 279 278 279 277 278 279 282 281 280 282 284 287 289 291 290 290 292 291 290 290 291 292 293 293 295 294 292 291
273 274 274 273 273 274 275 274 274 273 272 273 275 273 273 275 278 280 279 278 279 281 281 281 283 286 287 289 290 291 292 292 293 294 292 292 292 293 293 296 296 293 291
273 273 274 274 273 272 273 274 273 273 273 274 273 272 271 273 276 278 280 282 282 284 283 283 285 287 289 289 290 292 292 292 292 292 293 294 294 293 293 295 295 294 292
271 272 273 273 273 273 272 272 272 272 274 275 274 273 273 274 276 279 280 282 284 286 287 287 288 289 290 292 292 294 294 295 296 295 294 294 294 295 295 295 294 295 294
270 271 271 274 275 275 273 271 272 274 275 275 274 274 274 276 277 278 280 282 284 286 288 289 289 290 290 291 292 294 294 294 294 295 295 294 292 294 296 296 295 294 293
269 269 269 272 274 274 273 272 272 272 272 273 273 273 274 275 276 278 280 282 284 286 287 288 288 289 290 290 292 293 294 293 293 294 294 295 294 294 297 297 295 292 292
266 269 269 271 272 273 273 273 273 272 272 272 273 275 276 276 276 278 279 281 283 284 285 287 287 289 291 293 295 296 295 293 293 293 293 292 292 293 295 296 294 293 292
265 268 271 270 273 275 275 275 274 274 273 275 274 275 276 276 277 278 279 281 283 284 285 286 288 289 289 291 293 295 295 294 294 293 292 292 292 292 293 295 293 292 290
264 266 268 269 272 274 273 273 274 274 274 276 276 275 274 275 276 277 280 282 284 284 284 285 288 289 288 290 291 291 293 293 293 294 291 291 291 292 293 294 292 291 290
263 265 266 266 269 271 271 271 272 273 273 274 276 276 275 275 276 278 279 281 283 285 286 287 288 288 289 290 291 291 292 292 292 291 291 290 290 291 291 290 290 290 290
261 263 265 266 268 268 269 270 270 272 272 273 274 276 276 276 276 276 278 280 282 282 284 287 288 288 288 289 289 290 291 292 291 289 290 291 292 291 291 290 290 290 290
259 261 262 264 266 267 269 269 270 271 271 271 273 274 275 276 276 276 276 277 280 281 282 284 287 287 288 288 287 288 290 290 290 291 292 292 292 293 293 292 290 289 290
258 260 262 263 264 266 268 269 270 271 272 273 273 273 273 275 276 276 276 276 278 280 281 282 284 287 287 287 286 287 288 288 289 290 290 290 291 292 293 293 292 291 292
259 260 261 263 266 267 268 269 269 270 271 272 272 274 276 276 276 276 278 278 278 278 279 280 282 284 285 286 285 285 286 287 288 288 288 288 290 291 291 290 289 289 290
260 260 261 264 266 267 268 268 268 269 270 270 272 275 277 278 278 277 279 280 278 276 277 278 281 283 285 287 285 285 285 286 288 288 288 289 289 289 290 291 289 287 287
260 260 260 263 265 266 267 267 267 269 271 271 271 273 275 277 278 277 278 278 278 278 277 278 281 283 283 285 285 284 284 286 287 287 288 287 287 288 290 291 290 287 285
260 261 262 263 265 265 266 267 266 267 269 270 270 272 274 275 276 276 276 277 277 276 277 278 281 282 282 283 284 282 281 283 286 286 286 287 288 289 289 290 288 287 287
260 261 262 263 264 264 265 266 265 266 268 269 270 272 273 273 274 274 275 275 275 275 277 278 279 281 281 281 281 280 280 282 284 285 285 286 287 287 288 289 289 288 288
261 261 261 262 263 264 264 265 265 266 268 269 270 271 272 272 273 273 273 274 275 276 277 277 277 278 279 280 280 279 279 281 282 284 285 286 286 286 286 287 287 287 286
261 262 262 262 264 264 264 264 265 265 267 268 268 269 270 271 272 272 273 273 274 275 275 275 276 276 278 280 280 279 280 282 283 285 286 287 285 285 285 285 285 285 285
261 261 262 263 264 263 262 262 263 264 266 267 268 269 270 270 271 271 272 273 274 276 276 276 275 275 276 277 278 280 281 282 283 284 286 286 285 283 283 283 283 284 285
Height
5894 5893 5892 5891 5890 5890 5889 5889 5888 5888 5887 5886 5886 5885 5884 5884 5883 5883 5882 5882 5881 5880 5879 5878 5877 5876 5875 5874 5873 5872 5871 5869 5868 5866 5864 5863 5861 5859 5857 5855 5854 5852 5851
5889 5889 5888 5887 5886 5885 5885 5884 5884 5883 5883 5882 5881 5881 5880 5879 5879 5878 5878 5877 5877 5876 5875 5874 5873 5872 5871 5869 5868 5867 5866 5865 5863 5861 5860 5858 5856 5853 5851 5850 5848 5846 5844
5885 5884 5883 5882 5881 5881 5880 5880 5879 5879 5878 5878 5877 5876 5875 5875 5874 5873 5873 5872 5872 5871 5870 5869 5868 5867 5866 5864 5863 5862 5860 5859 5857 5856 5854 5852 5850 5847 5846 5843 5841 5839 5837
5880 5879 5879 5878 5877 5876 5875 5875 5874 5874 5873 5873 5872 5871 5870 5870 5869 5868 5868 5867 5867 5866 5865 5864 5863 5862 5860 5859 5857 5856 5854 5853 5852 5850 5848 5846 5843 5841 5839 5837 5835 5832 5831
5875 5875 5874 5873 5872 5871 5871 5870 5869 5869 5869 5868 5867 5866 5865 5864 5863 5863 5862 5862 5861 5860 5860 5859 5857 5856 5855 5853 5852 5850 5849 5847 5845 5843 5841 5839 5837 5835 5833 5830 5828 5825 5823
5870 5870 5869 5868 5867 5866 5865 5864 5864 5864 5864 5863 5862 5861 5860 5859 5858 5857 5857 5856 5855 5855 5854 5853 5852 5850 5849 5848 5846 5844 5843 5841 5839 5837 5835 5833 5830 5828 5825 5823 5821 5819 5817
5865 5864 5863 5862 5861 5860 5860 5859 5859 5858 5858 5857 5857 5856 5855 5854 5853 5852 5852 5851 5850 5849 5848 5847 5846 5845 5843 5842 5840 5838 5836 5834 5833 5831 5828 5826 5823 5821 5819 5816 5813 5811 5809
5859 5858 5857 5856 5856 5855 5854 5854 5853 5853 5852 5852 5851 5850 5849 5849 5848 5847 5846 5845 5844 5843 5842 5841 5840 5838 5837 5835 5834 5832 5830 5828 5826 5823 5821 5819 5816 5814 5812 5809 5807 5804 5802
5852 5852 5851 5851 5850 5849 5849 5848 5847 5847 5846 5845 5845 5844 5843 5843 5842 5841 5841 5840 5839 5837 5836 5835 5834 5832 5831 5829 5827 5825 5823 5821 5818 5816 5814 5812 5809 5807 5805 5802 5800 5798 5796
5845 5845 5845 5844 5844 5843 5842 5841 5841 5841 5840 5840 5839 5838 5837 5837 5836 5836 5835 5834 5833 5831 5830 5828 5827 5826 5824 5822 5820 5818 5816 5814 5811 5809 5807 5805 5802 5800 5798 5795 5793 5791 5789
5838 5839 5838 5838 5837 5836 5835 5835 5834 5834 5834 5834 5833 5832 5831 5831 5830 5830 5829 5828 5826 5825 5823 5822 5820 5819 5817 5815 5813 5811 5809 5806 5804 5802 5800 5798 5795 5793 5791 5788 5786 5784 5782
5832 5832 5832 5831 5830 5829 5829 5828 5827 5827 5827 5826 5826 5825 5825 5824 5824 5823 5822 5821 5819 5818 5816 5815 5813 5811 5809 5807 5805 5803 5801 5799 5797 5794 5792 5790 5788 5786 5784 5782 5779 5777 5776
5824 5824 5824 5823 5823 5823 5822 5821 5821 5820 5820 5819 5819 5818 5818 5817 5816 5815 5815 5814 5812 5811 5809 5808 5806 5804 5802 5800 5798 5796 5794 5792 5789 5787 5785 5783 5781 5779 5777 5775 5773 5771 5769
5816 5816 5816 5815 5815 5815 5815 5814 5814 5813 5813 5812 5811 5810 5810 5809 5808 5808 5807 5806 5805 5803 5802 5800 5798 5796 5794 5792 5790 5788 5786 5784 5782 5780 5778 5776 5774 5772 5770 5768 5766 5765 5763
5807 5807 5807 5807 5807 5807 5807 5806 5806 5806 5805 5804 5804 5803 5802 5801 5801 5800 5799 5798 5797 5795 5794 5792 5790 5788 5786 5784 5783 5781 5779 5777 5775 5773 5771 5769 5767 5765 5763 5761 5759 5757 5756
5798 5798 5798 5799 5799 5799 5798 5798 5797 5797 5797 5796 5795 5795 5794 5793 5792 5792 5791 5790 5789 5787 5786 5784 5782 5780 5778 5777 5775 5773 5771 5769 5767 5765 5763 5761 5759 5757 5755 5754 5752 5750 5749
5788 5789 5789 5789 5790 5790 5789 5789 5788 5788 5787 5787 5787 5786 5785 5785 5784 5783 5782 5781 5780 5779 5777 5776 5774 5772 5771 5769 5767 5765 5763 5761 5759 5757 5755 5753 5752 5750 5748 5746 5744 5743 5742
5777 5778 5779 5779 5780 5780 5780 5780 5779 5778 5778 5778 5778 5777 5776 5775 5775 5774 5773 5772 5771 5770 5769 5768 5766 5764 5763 5761 5759 5757 5755 5753 5751 5750 5748 5746 5744 5742 5740 5739 5737 5736 5734
5766 5767 5768 5769 5769 5769 5770 5770 5770 5769 5769 5769 5768 5768 5767 5766 5765 5765 5764 5763 5762 5761 5760 5759 5757 5756 5754 5752 5751 5749 5747 5746 5744 5742 5740 5738 5736 5735 5733 5731 5730 5728 5727
5754 5756 5757 5758 5759 5759 5759 5760 5760 5760 5760 5760 5759 5759 5758 5757 5756 5755 5754 5753 5751 5751 5751 5750 5749 5747 5746 5744 5742 5741 5739 5738 5736 5734 5732 5731 5729 5727 5726 5724 5722 5720 5719
5743 5744 5746 5747 5748 5749 5749 5750 5750 5750 5750 5750 5750 5750 5749 5748 5747 5745 5745 5744 5743 5742 5742 5741 5740 5739 5737 5736 5734 5733 5731 5730 5728 5727 5725 5723 5722 5720 5718 5716 5714 5712 5711
5732 5733 5735 5736 5737 5738 5738 5739 5739 5739 5740 5740 5740 5739 5739 5738 5737 5736 5735 5735 5734 5733 5732 5731 5730 5729 5728 5727 5726 5724 5723 5722 5720 5719 5717 5715 5714 5712 5710 5708 5707 5705 5703
5721 5722 5723 5725 5726 5726 5727 5728 5728 5728 5729 5729 5729 5729 5729 5728 5727 5726 5725 5724 5724 5723 5722 5722 5721 5720 5719 5718 5716 5715 5714 5713 5712 5710 5709 5707 5705 5704 5702 5700 5698 5697 5695
5710 5711 5711 5713 5714 5715 5715 5716 5717 5717 5718 5718 5718 5718 5718 5717 5717 5716 5715 5715 5714 5713 5713 5712 5711 5710 5709 5708 5707 5706 5705 5703 5702 5701 5700 5698 5696 5695 5693 5692 5690 5689 5687
5699 5700 5700 5701 5702 5703 5704 5704 5705 5706 5706 5706 5707 5707 5707 5706 5706 5705 5705 5704 5704 5703 5703 5702 5701 5701 5700 5699 5698 5697 5696 5695 5693 5692 5690 5689 5688 5686 5685 5683 5682 5680 5679
5688 5689 5689 5690 5691 5692 5692 5693 5694 5694 5695 5695 5695 5695 5695 5695 5695 5694 5694 5694 5693 5693 5692 5692 5691 5691 5690 5690 5689 5688 5687 5686 5685 5683 5681 5680 5679 5677 5676 5675 5673 5672 5671